N3232X KGCM-KHOT

Flight info

Callsign N3232X
Flight time 1h 2m
Altitude 6000
Route MAYJI
Aircraft KODI/L-SBDGRY/S

Departure

Time 2026-05-04 19:30
Airport Claremore Regional Airport (KGCM)

Arrival

Time 2026-05-04 20:33
Airport Memorial Field Airport (KHOT)
Time Latitude Longitude Altitude Speed Heading
2026-05-04 19:25 36.29397 -95.47744 721 ft 0 kts 92°
2026-05-04 19:28 36.29397 -95.47742 720 ft 0 kts 75°
2026-05-04 19:28 36.29437 -95.47757 718 ft 30 kts 326°
2026-05-04 19:28 36.29606 -95.47988 717 ft 40 kts 338°
2026-05-04 19:28 36.29932 -95.47904 704 ft 42 kts
2026-05-04 19:29 36.30017 -95.47929 703 ft 3 kts 227°
2026-05-04 19:29 36.29834 -95.47893 702 ft 61 kts 168°
2026-05-04 19:29 36.29306 -95.47828 824 ft 95 kts 190°
2026-05-04 19:29 36.28547 -95.47715 787 ft 122 kts 167°
2026-05-04 19:30 36.27773 -95.47363 1130 ft 108 kts 166°
2026-05-04 19:30 36.27009 -95.47067 1282 ft 119 kts 168°
2026-05-04 19:30 36.26162 -95.46758 1250 ft 132 kts 168°
2026-05-04 19:30 36.25363 -95.46664 1682 ft 108 kts 186°
2026-05-04 19:31 36.24596 -95.46857 1755 ft 122 kts 194°
2026-05-04 19:31 36.23620 -95.46843 994 ft 152 kts 161°
2026-05-04 19:31 36.22903 -95.45911 918 ft 149 kts 127°
2026-05-04 19:31 36.22783 -95.44647 999 ft 162 kts 84°
2026-05-04 19:32 36.23262 -95.43291 670 ft 172 kts 79°
2026-05-04 19:32 36.23597 -95.41949 758 ft 153 kts 81°
2026-05-04 19:32 36.24113 -95.40919 1139 ft 148 kts 22°
2026-05-04 19:32 36.25030 -95.41108 1680 ft 125 kts 326°
2026-05-04 19:33 36.25876 -95.41154 2162 ft 128 kts 25°
2026-05-04 19:33 36.26321 -95.40361 2593 ft 100 kts 112°
2026-05-04 19:33 36.25981 -95.39840 3036 ft 77 kts 155°
2026-05-04 19:33 36.25587 -95.39358 3468 ft 79 kts 154°
2026-05-04 19:34 36.25179 -95.38897 3896 ft 80 kts 159°
2026-05-04 19:34 36.24737 -95.38459 4306 ft 83 kts 160°
2026-05-04 19:34 36.24267 -95.38084 4715 ft 82 kts 166°
2026-05-04 19:34 36.23867 -95.37480 5146 ft 93 kts 149°
2026-05-04 19:35 36.23453 -95.36846 5554 ft 97 kts 147°
2026-05-04 19:35 36.23046 -95.36172 5923 ft 99 kts 145°
2026-05-04 19:35 36.22561 -95.35402 6000 ft 129 kts 140°
2026-05-04 19:35 36.22009 -95.34439 6008 ft 145 kts 134°
2026-05-04 19:36 36.21428 -95.33387 6008 ft 149 kts 135°
2026-05-04 19:36 36.20834 -95.32330 6004 ft 150 kts 137°
2026-05-04 19:36 36.20228 -95.31260 6006 ft 151 kts 137°
2026-05-04 19:36 36.19631 -95.30205 6002 ft 149 kts 135°
2026-05-04 19:37 36.19048 -95.29168 6005 ft 146 kts 136°
2026-05-04 19:37 36.18459 -95.28135 6007 ft 147 kts 136°
2026-05-04 19:37 36.17873 -95.27101 6000 ft 146 kts 136°
2026-05-04 19:37 36.17299 -95.26089 6001 ft 144 kts 137°
2026-05-04 19:38 36.16722 -95.25078 6002 ft 143 kts 136°
2026-05-04 19:38 36.16145 -95.24071 6005 ft 143 kts 138°
2026-05-04 19:38 36.15572 -95.23064 6004 ft 143 kts 137°
2026-05-04 19:38 36.14999 -95.22053 6005 ft 142 kts 136°
2026-05-04 19:39 36.14426 -95.21047 6004 ft 143 kts 138°
2026-05-04 19:39 36.13862 -95.20054 6012 ft 141 kts 137°
2026-05-04 19:39 36.13487 -95.19395 6012 ft 140 kts 138°
2026-05-04 19:39 36.12732 -95.18071 6011 ft 142 kts 137°
2026-05-04 19:40 36.12356 -95.17408 6022 ft 141 kts 137°
2026-05-04 19:40 36.11789 -95.16411 6029 ft 142 kts 138°
2026-05-04 19:40 36.11218 -95.15411 6033 ft 143 kts 136°
2026-05-04 19:40 36.10645 -95.14407 6032 ft 143 kts 137°
2026-05-04 19:41 36.10069 -95.13393 6037 ft 144 kts 138°
2026-05-04 19:41 36.09493 -95.12386 6040 ft 145 kts 138°
2026-05-04 19:41 36.08907 -95.11365 6041 ft 145 kts 136°
2026-05-04 19:41 36.08327 -95.10345 6041 ft 145 kts 137°
2026-05-04 19:42 36.07747 -95.09329 6041 ft 145 kts 136°
2026-05-04 19:42 36.07169 -95.08313 6041 ft 145 kts 136°
2026-05-04 19:42 36.06579 -95.07280 6026 ft 149 kts 135°
2026-05-04 19:42 36.05956 -95.06190 6020 ft 162 kts 136°
2026-05-04 19:43 36.05275 -95.05018 6026 ft 171 kts 136°
2026-05-04 19:43 36.04580 -95.03800 6024 ft 176 kts 135°
2026-05-04 19:43 36.03885 -95.02579 6047 ft 179 kts 134°
2026-05-04 19:43 36.03168 -95.01324 6049 ft 181 kts 134°
2026-05-04 19:44 36.02440 -95.00047 6047 ft 182 kts 134°
2026-05-04 19:44 36.01659 -94.98870 6048 ft 177 kts 144°
2026-05-04 19:44 36.00784 -94.97793 6047 ft 178 kts 143°
2026-05-04 19:44 35.99927 -94.96701 6048 ft 177 kts 143°
2026-05-04 19:45 35.99063 -94.95603 6046 ft 179 kts 143°
2026-05-04 19:45 35.98195 -94.94508 6040 ft 178 kts 143°
2026-05-04 19:45 35.97336 -94.93409 6037 ft 177 kts 143°
2026-05-04 19:45 35.96486 -94.92340 6039 ft 176 kts 143°
2026-05-04 19:46 35.95631 -94.91265 6042 ft 177 kts 143°
2026-05-04 19:46 35.94766 -94.90176 6049 ft 178 kts 143°
2026-05-04 19:46 35.93900 -94.89082 6049 ft 179 kts 143°
2026-05-04 19:46 35.93037 -94.87990 6052 ft 179 kts 143°
2026-05-04 19:47 35.92159 -94.86884 6008 ft 183 kts 142°
2026-05-04 19:47 35.91268 -94.85759 6002 ft 183 kts 143°
2026-05-04 19:47 35.90383 -94.84641 6005 ft 181 kts 143°
2026-05-04 19:47 35.89502 -94.83527 6002 ft 181 kts 143°
2026-05-04 19:48 35.88622 -94.82417 6004 ft 180 kts 143°
2026-05-04 19:48 35.87746 -94.81315 6004 ft 180 kts 143°
2026-05-04 19:48 35.86864 -94.80205 6005 ft 181 kts 143°
2026-05-04 19:48 35.85974 -94.79087 6003 ft 181 kts 143°
2026-05-04 19:49 35.85103 -94.77987 6007 ft 179 kts 143°
2026-05-04 19:49 35.84231 -94.76890 6008 ft 179 kts 143°
2026-05-04 19:49 35.83365 -94.75802 6005 ft 179 kts 143°
2026-05-04 19:49 35.82493 -94.74704 6008 ft 180 kts 143°
2026-05-04 19:50 35.81614 -94.73603 6005 ft 180 kts 143°
2026-05-04 19:50 35.80740 -94.72508 6011 ft 180 kts 143°
2026-05-04 19:50 35.79865 -94.71407 6015 ft 181 kts 143°
2026-05-04 19:50 35.78975 -94.70292 6011 ft 181 kts 143°
2026-05-04 19:51 35.78104 -94.69196 6008 ft 179 kts 143°
2026-05-04 19:51 35.77237 -94.68105 6009 ft 178 kts 143°
2026-05-04 19:51 35.76371 -94.67017 6012 ft 177 kts 143°
2026-05-04 19:51 35.75514 -94.65946 6016 ft 178 kts 143°
2026-05-04 19:52 35.74628 -94.64838 6014 ft 181 kts 143°
2026-05-04 19:52 35.73748 -94.63736 6012 ft 179 kts 143°
2026-05-04 19:52 35.72889 -94.62659 6016 ft 179 kts 143°
2026-05-04 19:52 35.72012 -94.61562 6014 ft 180 kts 143°
2026-05-04 19:53 35.71136 -94.60467 6010 ft 178 kts 143°
2026-05-04 19:53 35.70269 -94.59380 6012 ft 177 kts 143°
2026-05-04 19:53 35.69412 -94.58305 6016 ft 177 kts 143°
2026-05-04 19:53 35.68553 -94.57235 6002 ft 174 kts 143°
2026-05-04 19:54 35.67706 -94.56171 6004 ft 174 kts 143°
2026-05-04 19:54 35.66845 -94.55102 6009 ft 177 kts 144°
2026-05-04 19:54 35.65972 -94.54018 6006 ft 179 kts 144°
2026-05-04 19:54 35.65099 -94.52929 6007 ft 179 kts 143°
2026-05-04 19:55 35.64230 -94.51839 6005 ft 179 kts 142°
2026-05-04 19:55 35.63352 -94.50731 6009 ft 180 kts 143°
2026-05-04 19:55 35.62483 -94.49662 6008 ft 178 kts 144°
2026-05-04 19:55 35.61615 -94.48582 6007 ft 178 kts 143°
2026-05-04 19:56 35.60749 -94.47498 6005 ft 177 kts 143°
2026-05-04 19:56 35.59835 -94.46507 6013 ft 173 kts 153°
2026-05-04 19:56 35.58862 -94.45660 6012 ft 173 kts 152°
2026-05-04 19:56 35.57894 -94.44748 6007 ft 175 kts 151°
2026-05-04 19:57 35.56930 -94.43816 6008 ft 176 kts 150°
2026-05-04 19:57 35.55968 -94.42885 6010 ft 176 kts 152°
2026-05-04 19:57 35.55001 -94.41956 6011 ft 177 kts 150°
2026-05-04 19:57 35.54033 -94.41018 6010 ft 177 kts 151°
2026-05-04 19:58 35.53066 -94.40083 6016 ft 178 kts 150°
2026-05-04 19:58 35.52098 -94.39153 6015 ft 178 kts 150°
2026-05-04 19:58 35.51112 -94.38204 6017 ft 179 kts 150°
2026-05-04 19:58 35.50146 -94.37274 6017 ft 178 kts 150°
2026-05-04 19:59 35.49160 -94.36324 6019 ft 179 kts 150°
2026-05-04 19:59 35.48182 -94.35378 6022 ft 179 kts 150°
2026-05-04 19:59 35.47210 -94.34443 6025 ft 180 kts 150°
2026-05-04 19:59 35.46226 -94.33497 6022 ft 180 kts 151°
2026-05-04 20:00 35.45242 -94.32552 6020 ft 179 kts 151°
2026-05-04 20:00 35.44265 -94.31608 6019 ft 177 kts 152°
2026-05-04 20:00 35.43295 -94.30675 6022 ft 176 kts 151°
2026-05-04 20:00 35.42332 -94.29750 6015 ft 178 kts 151°
2026-05-04 20:01 35.41348 -94.28805 6015 ft 180 kts 149°
2026-05-04 20:01 35.40366 -94.27862 5988 ft 181 kts 150°
2026-05-04 20:01 35.39377 -94.26912 5986 ft 181 kts 150°
2026-05-04 20:01 35.38389 -94.25961 5985 ft 179 kts 150°
2026-05-04 20:02 35.37409 -94.25020 5989 ft 179 kts 150°
2026-05-04 20:02 35.36427 -94.24078 5989 ft 180 kts 150°
2026-05-04 20:02 35.35437 -94.23129 5989 ft 181 kts 150°
2026-05-04 20:02 35.34464 -94.22197 5999 ft 180 kts 150°
2026-05-04 20:03 35.33458 -94.21232 5996 ft 181 kts 150°
2026-05-04 20:03 35.32482 -94.20297 5991 ft 180 kts 150°
2026-05-04 20:03 35.31498 -94.19353 5992 ft 179 kts 150°
2026-05-04 20:03 35.30499 -94.18396 5991 ft 182 kts 150°
2026-05-04 20:04 35.29518 -94.17459 5992 ft 181 kts 150°
2026-05-04 20:04 35.28524 -94.16506 5994 ft 181 kts 150°
2026-05-04 20:04 35.27533 -94.15560 5994 ft 181 kts 150°
2026-05-04 20:04 35.26543 -94.14614 6000 ft 182 kts 150°
2026-05-04 20:05 35.25527 -94.13643 5997 ft 183 kts 150°
2026-05-04 20:05 35.24527 -94.12687 5999 ft 183 kts 149°
2026-05-04 20:05 35.23524 -94.11730 5997 ft 183 kts 150°
2026-05-04 20:05 35.22522 -94.10771 5996 ft 182 kts 150°
2026-05-04 20:06 35.21529 -94.09823 5999 ft 181 kts 149°
2026-05-04 20:06 35.20531 -94.08868 6000 ft 182 kts 149°
2026-05-04 20:06 35.19532 -94.07917 5997 ft 182 kts 149°
2026-05-04 20:06 35.18527 -94.06957 5997 ft 183 kts 149°
2026-05-04 20:07 35.17530 -94.06007 5997 ft 182 kts 149°
2026-05-04 20:07 35.16532 -94.05055 5994 ft 182 kts 151°
2026-05-04 20:07 35.15531 -94.04098 5997 ft 181 kts 150°
2026-05-04 20:07 35.14532 -94.03149 5996 ft 181 kts 152°
2026-05-04 20:08 35.13552 -94.02221 6000 ft 182 kts 150°
2026-05-04 20:08 35.12538 -94.01256 5997 ft 183 kts 150°
2026-05-04 20:08 35.11550 -94.00314 5998 ft 183 kts 150°
2026-05-04 20:08 35.10548 -93.99359 6001 ft 183 kts 151°
2026-05-04 20:09 35.09535 -93.98397 5993 ft 184 kts 150°
2026-05-04 20:09 35.08529 -93.97439 5996 ft 183 kts 151°
2026-05-04 20:09 35.07528 -93.96490 6001 ft 182 kts 152°
2026-05-04 20:09 35.06529 -93.95537 6006 ft 183 kts 152°
2026-05-04 20:10 35.05539 -93.94597 6008 ft 183 kts 152°
2026-05-04 20:10 35.04521 -93.93631 6003 ft 182 kts 152°
2026-05-04 20:10 35.03522 -93.92682 6002 ft 181 kts 150°
2026-05-04 20:10 35.02526 -93.91736 6004 ft 182 kts 150°
2026-05-04 20:11 35.01523 -93.90784 6001 ft 183 kts 152°
2026-05-04 20:11 35.00514 -93.89831 6004 ft 184 kts 150°
2026-05-04 20:11 34.99518 -93.88886 6000 ft 183 kts 150°
2026-05-04 20:11 34.98520 -93.87939 5999 ft 181 kts 150°
2026-05-04 20:12 34.97519 -93.86984 5999 ft 179 kts 151°
2026-05-04 20:12 34.96551 -93.86068 6002 ft 178 kts 151°
2026-05-04 20:12 34.95566 -93.85137 6004 ft 180 kts 152°
2026-05-04 20:12 34.94565 -93.84194 6007 ft 182 kts 150°
2026-05-04 20:13 34.93561 -93.83244 6003 ft 183 kts 150°
2026-05-04 20:13 34.92556 -93.82292 5998 ft 183 kts 150°
2026-05-04 20:13 34.91555 -93.81346 6000 ft 181 kts 150°
2026-05-04 20:13 34.90575 -93.80418 5998 ft 181 kts 150°
2026-05-04 20:14 34.89583 -93.79480 5997 ft 179 kts 151°
2026-05-04 20:14 34.88592 -93.78544 6000 ft 180 kts 150°
2026-05-04 20:14 34.87606 -93.77614 6000 ft 180 kts 150°
2026-05-04 20:14 34.86611 -93.76673 6001 ft 180 kts 151°
2026-05-04 20:15 34.85634 -93.75749 5999 ft 179 kts 151°
2026-05-04 20:15 34.84643 -93.74815 6003 ft 179 kts 152°
2026-05-04 20:15 34.83652 -93.73883 5999 ft 179 kts 150°
2026-05-04 20:15 34.82683 -93.72968 5997 ft 179 kts 151°
2026-05-04 20:16 34.81695 -93.72035 6000 ft 178 kts 150°
2026-05-04 20:16 34.80707 -93.71103 6000 ft 179 kts 151°
2026-05-04 20:16 34.79727 -93.70182 5999 ft 178 kts 152°
2026-05-04 20:16 34.78745 -93.69257 6000 ft 178 kts 151°
2026-05-04 20:17 34.77773 -93.68341 6002 ft 177 kts 152°
2026-05-04 20:17 34.76814 -93.67436 6008 ft 176 kts 152°
2026-05-04 20:17 34.75843 -93.66524 6004 ft 176 kts 152°
2026-05-04 20:17 34.74866 -93.65605 6007 ft 178 kts 152°
2026-05-04 20:18 34.73889 -93.64687 6005 ft 179 kts 152°
2026-05-04 20:18 34.72903 -93.63758 6007 ft 180 kts 152°
2026-05-04 20:18 34.71905 -93.62823 6006 ft 181 kts 151°
2026-05-04 20:18 34.70912 -93.61888 6007 ft 181 kts 151°
2026-05-04 20:19 34.69911 -93.60948 6005 ft 181 kts 150°
2026-05-04 20:19 34.68916 -93.60018 6007 ft 182 kts 151°
2026-05-04 20:19 34.67900 -93.59064 6007 ft 182 kts 150°
2026-05-04 20:19 34.66914 -93.58136 6002 ft 181 kts 150°
2026-05-04 20:20 34.65911 -93.57195 6005 ft 179 kts 150°
2026-05-04 20:20 34.64936 -93.56279 6007 ft 179 kts 151°
2026-05-04 20:20 34.63955 -93.55361 6007 ft 179 kts 150°
2026-05-04 20:20 34.62963 -93.54432 6004 ft 179 kts 150°
2026-05-04 20:21 34.61981 -93.53511 6006 ft 179 kts 150°
2026-05-04 20:21 34.60996 -93.52588 6006 ft 178 kts 150°
2026-05-04 20:21 34.59026 -93.50743 6007 ft 179 kts 150°
2026-05-04 20:22 34.58038 -93.49819 6018 ft 179 kts 150°
2026-05-04 20:22 34.57050 -93.48895 6016 ft 180 kts 150°
2026-05-04 20:22 34.56058 -93.47968 6018 ft 179 kts 150°
2026-05-04 20:22 34.55092 -93.47062 6022 ft 178 kts 150°
2026-05-04 20:23 34.54115 -93.46151 6024 ft 178 kts 150°
2026-05-04 20:23 34.53141 -93.45240 6028 ft 177 kts 151°
2026-05-04 20:23 34.52149 -93.44314 6027 ft 177 kts 150°
2026-05-04 20:23 34.51176 -93.43403 6031 ft 177 kts 151°
2026-05-04 20:24 34.50200 -93.42494 6029 ft 178 kts 150°
2026-05-04 20:24 34.49213 -93.41574 6005 ft 180 kts 150°
2026-05-04 20:24 34.48189 -93.40627 5755 ft 185 kts 151°
2026-05-04 20:24 34.47236 -93.39731 5552 ft 162 kts 150°
2026-05-04 20:25 34.46387 -93.38934 5365 ft 148 kts 151°
2026-05-04 20:25 34.45587 -93.38186 5191 ft 141 kts 152°
2026-05-04 20:25 34.44820 -93.37471 4988 ft 137 kts 152°
2026-05-04 20:25 34.44080 -93.36782 4815 ft 134 kts 152°
2026-05-04 20:26 34.43333 -93.36085 4635 ft 133 kts 152°
2026-05-04 20:26 34.42614 -93.35417 4468 ft 131 kts 151°
2026-05-04 20:26 34.41893 -93.34743 4307 ft 133 kts 150°
2026-05-04 20:26 34.41147 -93.34050 4122 ft 135 kts 150°
2026-05-04 20:27 34.40404 -93.33360 3938 ft 135 kts 150°
2026-05-04 20:27 34.39673 -93.32680 3762 ft 134 kts 150°
2026-05-04 20:27 34.38941 -93.31999 3586 ft 134 kts 150°
2026-05-04 20:27 34.38203 -93.31313 3414 ft 133 kts 150°
2026-05-04 20:28 34.37535 -93.30525 3244 ft 139 kts 133°
2026-05-04 20:28 34.37135 -93.29422 3061 ft 149 kts 111°
2026-05-04 20:28 34.37087 -93.28595 3035 ft 146 kts 93°
2026-05-04 20:28 34.37337 -93.27421 3028 ft 145 kts 70°
2026-05-04 20:29 34.37911 -93.26411 3039 ft 147 kts 58°
2026-05-04 20:29 34.38517 -93.25402 3039 ft 151 kts 59°
2026-05-04 20:29 34.39154 -93.24322 3033 ft 162 kts 58°
2026-05-04 20:29 34.39811 -93.23210 3016 ft 167 kts 59°
2026-05-04 20:30 34.40513 -93.22016 2805 ft 176 kts 58°
2026-05-04 20:30 34.41223 -93.20838 2569 ft 173 kts 58°
2026-05-04 20:30 34.41912 -93.19684 2352 ft 162 kts 57°
2026-05-04 20:30 34.42543 -93.18639 2348 ft 150 kts 58°
2026-05-04 20:31 34.43167 -93.17626 2332 ft 146 kts 58°
2026-05-04 20:31 34.43744 -93.16678 2339 ft 139 kts 58°
2026-05-04 20:31 34.44398 -93.15654 1481 ft 181 kts 58°
2026-05-04 20:31 34.45111 -93.14433 1140 ft 165 kts 56°
2026-05-04 20:32 34.45697 -93.13396 1005 ft 129 kts 56°
2026-05-04 20:32 34.46132 -93.12561 747 ft 102 kts 53°
2026-05-04 20:32 34.46488 -93.11900 633 ft 88 kts 48°
2026-05-04 20:32 34.46827 -93.11369 557 ft 71 kts 30°
2026-05-04 20:33 34.47006 -93.11222 473 ft 0 kts 146°